Date,TemperatureHighF,TemperatureAvgF,TemperatureLowF,DewpointHighF,DewpointAvgF,DewpointLowF,HumidityHigh,HumidityAvg,HumidityLow,PressureMaxIn,PressureMinIn,WindSpeedMaxMPH,WindSpeedAvgMPH,GustSpeedMaxMPH,PrecipitationSumIn
2013-1-1,12.4,6.9,-1.0,7.0,1.1,-5.0,92,77,70,30.27,30.16,8,3,10,0.00
2013-1-2,23.4,15.6,4.8,19.0,10.2,1.0,87,79,71,30.19,30.04,11,5,14,0.00
2013-1-3,25.9,19.7,9.9,24.0,15.8,6.0,91,85,78,30.27,30.08,15,7,18,0.00
2013-1-4,30.9,19.3,8.2,22.0,14.2,5.0,88,81,66,30.23,30.12,19,9,23,0.00
2013-1-5,34.4,26.4,15.7,32.0,23.8,11.0,93,89,81,30.18,29.89,22,10,25,0.20
2013-1-6,31.2,19.4,11.3,27.0,15.3,8.0,88,84,78,30.29,29.89,20,9,25,0.00
2013-1-7,35.9,24.5,11.8,27.0,19.4,8.0,88,81,67,30.27,30.03,23,12,28,0.01
2013-1-8,37.3,29.8,18.5,32.0,26.3,17.0,100,86,78,30.07,29.93,23,10,26,0.00
2013-1-9,38.6,32.5,22.5,32.0,26.5,19.0,87,79,62,30.44,29.94,22,8,28,0.00
2013-1-10,36.9,29.0,17.5,34.0,26.1,15.0,96,89,76,30.44,29.78,23,8,27,0.32
2013-1-11,44.8,38.9,34.3,43.0,38.3,34.0,100,97,90,29.78,29.56,19,9,24,0.04
2013-1-12,48.3,31.8,20.4,44.0,26.9,17.0,91,82,74,30.00,29.57,19,12,37,0.00
2013-1-13,20.4,15.1,9.6,18.0,9.6,5.0,90,78,71,30.25,29.89,17,11,24,0.00
2013-1-14,25.2,14.2,5.7,13.0,7.9,2.0,89,76,54,30.45,30.25,12,5,15,0.00
2013-1-15,28.1,18.3,9.2,17.0,12.0,6.0,87,77,59,30.41,30.09,14,5,15,0.00
2013-1-16,34.4,26.3,14.1,32.0,20.7,9.0,93,79,68,30.09,29.80,21,10,26,0.00
2013-1-17,31.7,22.6,16.3,28.0,14.4,8.0,86,72,55,30.37,30.06,19,8,22,0.00
2013-1-18,43.3,32.8,19.1,34.0,26.3,15.0,87,77,68,30.39,29.83,34,16,40,0.00
2013-1-19,47.4,35.7,16.4,35.0,28.4,8.0,83,75,59,30.00,29.67,41,17,47,0.00
2013-1-20,15.5,11.3,7.1,6.0,2.7,0.0,79,68,57,30.31,30.00,32,12,37,0.00
2013-1-21,10.4,4.1,-0.2,5.0,-4.8,-8.0,80,67,55,30.30,30.17,26,15,33,0.00
2013-1-22,10.1,4.3,-4.8,-1.0,-5.0,-11.0,77,66,54,30.41,30.33,13,6,18,0.00
2013-1-23,20.9,13.4,6.3,15.0,6.6,-2.0,86,74,63,30.43,30.11,21,9,28,0.00
2013-1-24,18.8,9.6,1.0,9.0,0.1,-6.0,72,66,53,30.65,30.32,15,6,17,0.00
2013-1-25,30.6,20.8,13.9,19.0,12.5,7.0,87,71,55,30.29,29.93,26,12,31,0.00
2013-1-26,26.3,17.8,6.0,16.0,8.7,2.0,83,69,51,30.38,30.21,14,6,16,0.00
2013-1-27,34.7,28.8,23.7,34.0,24.1,14.0,100,83,66,30.31,29.79,18,12,23,0.08
2013-1-28,41.1,37.9,34.4,40.0,36.4,33.0,97,94,85,29.90,29.67,17,7,19,0.37
2013-1-29,56.6,44.4,34.0,55.0,43.4,33.0,98,96,92,29.66,29.40,18,7,36,0.74
2013-1-30,33.8,26.4,14.8,33.0,24.6,10.0,96,92,80,29.65,29.28,32,14,34,0.14
2013-1-31,15.3,6.9,-2.0,12.0,2.0,-7.0,87,80,75,30.22,29.66,24,14,29,0.00
2013-2-1,10.5,0.1,-7.3,8.0,-5.4,-12.0,89,77,66,30.37,30.12,15,8,18,0.00
2013-2-2,18.6,11.4,3.6,16.0,7.8,0.0,92,85,77,30.11,30.01,13,5,16,0.00
2013-2-3,19.3,15.5,10.1,16.0,11.2,7.0,91,83,70,30.06,29.94,21,7,24,0.00
2013-2-4,20.1,15.1,1.5,18.0,12.1,-2.0,92,87,79,29.98,29.84,19,7,20,0.01
2013-2-5,30.1,20.7,2.2,26.0,17.3,-2.0,92,87,79,30.08,29.79,24,8,24,0.01
2013-2-6,35.8,23.6,2.2,32.0,20.1,-1.0,93,86,78,30.17,30.02,17,6,20,0.08
2013-2-7,34.4,32.3,26.1,33.0,30.8,24.0,96,94,88,30.05,29.86,15,6,19,0.40
2013-2-8,28.7,20.3,2.9,23.0,16.4,0.0,91,85,69,30.35,30.05,12,4,18,0.05
2013-2-9,29.9,23.5,3.0,27.0,21.1,0.0,94,90,86,30.36,30.01,24,10,29,0.00
2013-2-10,42.0,34.6,22.1,41.0,33.0,21.0,98,94,76,30.01,29.36,28,16,42,0.46
2013-2-11,35.1,28.9,22.8,32.0,23.9,18.0,89,81,77,30.02,29.41,40,18,44,0.00
2013-2-12,33.4,26.0,21.5,27.0,21.4,18.0,90,83,72,30.08,29.85,19,8,24,0.00
2013-2-13,38.0,31.6,22.5,32.0,27.8,21.0,93,86,75,29.84,29.64,13,5,14,0.00
2013-2-14,36.3,33.9,29.4,32.0,29.0,25.0,89,82,72,29.97,29.56,28,12,32,0.01
2013-2-15,29.2,21.4,13.5,25.0,13.3,7.0,83,71,59,30.21,29.98,20,12,24,0.00
2013-2-16,18.7,13.9,9.9,9.0,7.3,5.0,82,75,65,30.21,30.14,15,7,21,0.00
2013-2-17,29.9,20.5,8.3,23.0,14.3,4.0,86,77,68,30.18,29.86,20,9,24,0.00
2013-2-18,48.7,33.1,17.7,40.0,28.3,14.0,95,83,71,29.85,29.45,24,13,27,0.13
2013-2-19,17.3,9.4,4.2,14.0,5.3,-1.0,88,83,78,30.26,29.62,28,18,36,0.00
2013-2-20,19.9,10.6,3.5,13.0,4.8,-2.0,85,77,71,30.40,30.27,15,7,20,0.00
2013-2-21,25.9,17.8,8.4,24.0,14.6,5.0,94,87,81,30.40,29.93,28,11,34,0.00
2013-2-22,28.4,25.6,23.3,27.0,23.7,21.0,94,92,89,29.93,29.76,19,9,28,0.03
2013-2-23,25.6,21.8,17.5,21.0,17.3,13.0,90,83,71,29.96,29.87,14,8,16,0.00
2013-2-24,30.7,19.7,6.2,23.0,14.8,3.0,92,82,68,30.11,29.95,8,3,9,0.00
2013-2-25,36.2,25.8,13.2,30.0,22.0,11.0,93,85,77,30.14,29.93,13,4,16,0.00
2013-2-26,32.8,31.0,28.8,29.0,27.4,26.0,95,86,78,29.93,29.55,31,18,39,0.00
2013-2-27,32.0,29.8,27.7,30.0,28.5,26.0,96,94,92,29.77,29.59,14,8,18,0.09
2013-2-28,34.3,31.2,26.8,30.0,27.8,21.0,95,87,80,30.08,29.77,13,5,17,0.02
2013-3-1,26.6,22.3,11.4,21.0,17.8,9.0,92,83,76,30.23,30.09,18,8,22,0.00
2013-3-2,24.5,15.6,6.7,15.0,9.3,4.0,90,77,63,30.25,30.16,11,4,14,0.00
2013-3-3,31.3,17.1,4.9,14.0,8.4,1.0,86,70,43,30.17,30.06,7,3,9,0.00
2013-3-4,29.9,24.4,16.1,25.0,19.4,11.0,87,81,75,30.09,29.94,21,12,25,0.00
2013-3-5,30.5,27.6,23.3,29.0,25.7,21.0,94,92,85,30.09,29.82,14,7,18,0.17
2013-3-6,28.6,25.9,21.3,24.0,22.0,19.0,92,85,80,30.31,30.10,19,11,23,0.05
2013-3-7,35.1,23.7,12.7,24.0,18.9,10.0,91,82,63,30.39,30.30,10,2,10,0.12
2013-3-8,32.7,19.1,5.0,28.0,16.0,2.0,92,88,81,30.42,30.23,16,6,20,0.00
2013-3-9,36.2,34.3,29.0,35.0,31.6,25.0,95,90,83,30.23,29.75,22,12,29,0.42
2013-3-10,38.9,36.2,33.7,38.0,35.5,33.0,97,97,94,29.74,29.55,19,6,27,0.89
2013-3-11,33.7,31.8,29.7,33.0,30.3,26.0,98,94,87,29.79,29.54,20,9,27,0.01
2013-3-12,32.5,26.8,22.9,28.0,22.3,18.0,90,83,72,30.04,29.79,22,12,31,0.00
2013-3-13,30.5,24.2,19.1,19.0,16.2,14.0,86,72,54,30.32,30.04,24,12,26,0.00
2013-3-14,33.4,26.3,19.9,31.0,23.3,16.0,94,88,75,30.32,30.05,14,6,19,0.01
2013-3-15,34.4,30.8,25.1,33.0,29.4,24.0,96,94,90,30.04,29.73,18,5,23,0.09
2013-3-16,31.7,28.8,26.0,31.0,24.9,21.0,96,85,77,30.12,29.72,15,8,18,0.00
2013-3-17,31.6,25.9,20.3,26.0,20.3,13.0,87,79,72,30.20,29.95,18,11,22,0.01
2013-3-18,32.3,26.3,17.1,31.0,23.2,11.0,94,88,78,29.95,29.58,21,11,36,0.08
2013-3-19,27.4,19.4,11.4,15.0,11.0,6.0,82,70,58,30.11,29.79,28,15,34,0.00
2013-3-20,20.2,14.2,8.1,12.0,6.5,1.0,78,71,66,30.14,30.05,25,17,29,0.00
2013-3-21,26.2,15.1,7.0,16.0,9.0,3.0,86,77,62,30.09,30.01,9,5,11,0.00
2013-3-22,31.7,23.3,12.7,24.0,16.0,9.0,87,75,54,30.06,30.01,7,3,9,0.00
2013-3-23,36.3,30.2,20.6,26.0,23.1,18.0,92,76,56,30.10,30.01,10,4,12,0.00
2013-3-24,31.1,29.5,28.0,28.0,26.3,23.0,94,88,79,30.02,29.74,24,10,26,0.00
2013-3-25,34.4,30.2,26.0,28.0,23.9,19.0,82,77,71,30.09,29.80,17,8,22,0.00
2013-3-26,39.3,33.0,27.2,30.0,25.6,22.0,81,74,62,30.25,30.09,16,8,18,0.00
2013-3-27,41.4,34.9,30.5,30.0,25.7,20.0,87,71,46,30.31,30.25,12,4,12,0.00
2013-3-28,46.3,36.6,26.7,33.0,27.1,22.0,85,69,46,30.33,30.24,8,2,10,0.00
2013-3-29,51.7,40.1,29.7,36.0,30.8,27.0,92,71,47,30.28,30.17,7,2,9,0.00
2013-3-30,53.7,42.8,32.4,44.0,36.5,28.0,95,79,64,30.18,29.79,25,11,28,0.00
2013-3-31,48.6,40.2,31.5,42.0,34.8,23.0,95,81,66,29.90,29.71,24,12,33,0.00
2013-4-1,35.9,30.2,25.4,24.0,20.0,16.0,79,66,53,30.19,29.91,19,11,26,0.00
2013-4-2,39.9,30.9,22.4,24.0,20.1,17.0,84,66,45,30.30,30.19,18,9,24,0.00
2013-4-3,43.7,32.0,21.4,28.0,21.2,17.0,86,67,39,30.42,30.25,9,4,15,0.00
2013-4-4,57.7,41.6,27.0,40.0,30.0,21.0,83,65,41,30.24,29.94,19,9,22,0.00
2013-4-5,50.2,40.8,30.8,34.0,28.7,24.0,83,64,39,30.18,30.02,19,6,24,0.00
2013-4-6,65.5,48.2,34.3,49.0,36.5,22.0,92,65,45,30.02,29.52,31,16,39,0.04
2013-4-7,60.1,47.9,38.4,44.0,39.1,35.0,87,73,47,29.89,29.60,20,8,30,0.00
2013-4-8,65.6,51.6,39.4,55.0,46.5,36.0,97,83,64,29.87,29.54,16,8,19,0.77
2013-4-9,46.9,42.7,38.5,46.0,41.3,37.0,97,94,91,29.90,29.76,27,14,33,1.85
2013-4-10,39.2,36.9,33.1,38.0,35.3,32.0,95,94,92,30.02,29.79,32,15,34,1.64
2013-4-11,42.9,39.7,36.3,42.0,38.5,35.0,96,95,93,29.67,29.51,40,11,48,0.27
2013-4-12,40.2,36.0,34.0,38.0,32.9,29.0,95,88,78,29.81,29.51,19,9,23,0.03
2013-4-13,42.7,36.3,31.5,33.0,29.4,27.0,87,76,61,29.94,29.80,19,8,24,0.00
2013-4-14,66.0,46.2,33.2,55.0,39.8,29.0,91,78,62,29.95,29.49,27,16,32,0.08
2013-4-15,58.8,48.2,38.4,51.0,43.0,35.0,96,84,47,29.94,29.57,20,9,28,0.50
2013-4-16,53.6,43.4,32.8,39.0,34.8,30.0,93,73,47,30.21,29.93,15,8,19,0.00
2013-4-17,45.2,40.4,38.9,43.0,35.2,-99.9,96,88,76,30.23,29.76,27,12,34,1.83
2013-4-18,59.9,47.7,35.6,59.0,46.2,31.0,98,94,83,29.80,29.30,42,14,50,1.24
2013-4-19,37.7,34.7,32.4,31.0,29.6,27.0,90,81,71,29.92,29.40,29,15,36,0.01
2013-4-20,45.2,35.8,27.5,30.0,25.8,21.0,90,69,40,30.33,29.93,12,4,16,0.00
2013-4-21,53.2,42.6,32.4,42.0,34.2,27.0,85,73,59,30.42,30.20,26,15,31,0.00
2013-4-22,65.8,53.7,41.7,46.0,40.3,36.0,81,62,41,30.20,29.93,21,12,30,0.00
2013-4-23,53.3,41.6,34.8,47.0,37.7,32.0,95,86,73,29.96,29.86,21,9,26,0.31
2013-4-24,51.4,41.6,32.7,33.0,29.7,26.0,83,65,41,30.03,29.94,17,10,23,0.00
2013-4-25,50.9,41.8,34.7,37.0,32.2,27.0,91,71,40,30.24,29.99,21,10,28,0.10
2013-4-26,67.1,52.3,34.6,49.0,40.3,29.0,84,65,46,30.23,30.12,30,14,36,0.00
2013-4-27,64.4,54.1,41.1,49.0,45.3,40.0,95,74,54,30.19,29.93,15,6,22,0.00
2013-4-28,69.6,55.8,40.8,53.0,46.8,38.0,94,74,47,29.93,29.72,8,3,11,0.00
2013-4-29,75.8,61.7,50.7,59.0,53.4,47.0,93,76,51,29.80,29.61,24,11,30,0.00
2013-4-30,86.2,71.7,58.4,61.0,54.8,49.0,92,60,29,29.79,29.59,29,16,36,0.00
2013-5-1,82.6,68.8,50.6,58.0,52.8,42.0,85,59,32,30.09,29.80,15,7,21,0.00
2013-5-2,54.5,46.5,37.2,43.0,38.0,-99.9,92,75,60,30.19,30.06,25,-3,27,0.02
2013-5-3,48.6,40.6,35.2,48.0,39.2,33.0,96,94,91,30.15,29.90,19,11,23,0.88
2013-5-4,67.5,57.8,48.7,60.0,52.3,47.0,96,83,60,29.97,29.89,17,9,23,0.00
2013-5-5,72.0,59.9,46.9,54.0,49.5,45.0,97,71,43,29.98,29.90,14,6,19,0.00
2013-5-6,72.6,61.5,44.0,51.0,45.8,42.0,93,60,35,30.00,29.91,16,5,17,0.00
2013-5-7,77.9,65.6,53.8,48.0,44.4,39.0,80,50,25,29.98,29.88,9,3,13,0.00
2013-5-8,80.1,65.9,46.6,55.0,47.3,43.0,88,55,29,29.96,29.87,15,3,16,0.00
2013-5-9,67.6,61.1,50.6,61.0,57.3,49.0,96,87,75,29.87,29.72,17,6,27,1.95
2013-5-10,52.6,48.1,44.1,49.0,45.6,42.0,95,91,84,29.94,29.75,19,9,24,0.05
2013-5-11,53.6,48.0,38.6,50.0,38.3,28.0,97,72,45,30.04,29.80,33,15,40,0.02
2013-5-12,54.1,44.3,34.2,32.0,29.3,27.0,79,58,37,30.11,30.03,21,11,26,0.00
2013-5-13,65.7,52.2,32.7,42.0,33.2,28.0,86,52,29,30.12,29.85,14,5,20,0.00
2013-5-14,92.0,72.2,52.4,62.0,51.4,40.0,74,51,23,29.84,29.50,22,12,25,0.00
2013-5-15,79.3,70.2,58.6,58.0,48.7,43.0,67,48,29,29.77,29.54,16,6,21,0.00
2013-5-16,84.4,69.9,50.7,51.0,46.1,43.0,83,47,24,29.85,29.76,16,4,19,0.00
2013-5-17,75.6,65.0,58.0,57.0,50.3,44.0,70,60,51,29.93,29.82,19,10,22,0.00
2013-5-18,83.4,68.9,53.5,63.0,55.7,47.0,83,65,44,29.95,29.81,17,8,22,0.00
2013-5-19,86.6,69.3,59.7,68.0,61.1,57.0,93,76,48,29.85,29.52,33,13,49,0.31
2013-5-20,79.2,69.8,60.9,66.0,62.0,59.0,95,77,56,29.68,29.53,25,14,42,0.35
2013-5-21,75.2,67.6,60.0,63.0,58.9,57.0,94,75,56,29.59,29.51,23,11,27,0.00
2013-5-22,70.1,61.4,55.5,59.0,55.9,53.0,95,84,57,29.67,29.53,14,5,20,0.02
2013-5-23,63.4,56.0,48.6,57.0,48.1,40.0,94,77,48,30.22,29.68,25,9,27,0.12
2013-5-24,65.9,52.7,37.4,44.0,37.3,34.0,88,60,32,30.39,30.22,13,6,17,0.00
2013-5-25,54.8,50.8,46.4,46.0,42.8,39.0,84,74,62,30.31,30.22,15,7,19,0.13
2013-5-26,56.6,51.5,43.1,53.0,46.4,39.0,94,83,65,30.23,30.04,27,10,31,0.39
2013-5-27,60.4,55.7,51.2,59.0,54.8,50.0,98,96,94,30.03,29.77,19,12,22,0.01
2013-5-28,74.7,63.8,53.8,71.0,62.4,53.0,99,95,88,29.78,29.59,19,6,20,0.37
2013-5-29,82.1,71.4,61.2,72.0,65.3,58.0,97,81,67,29.82,29.66,24,9,25,0.00
2013-5-30,83.6,71.6,61.7,70.0,65.6,60.0,94,82,57,29.76,29.57,30,18,39,0.37
2013-5-31,73.8,67.2,61.8,66.0,63.1,60.0,95,87,67,29.70,29.56,21,13,31,0.00
2013-6-1,77.2,68.2,61.7,66.0,62.0,57.0,96,82,51,29.65,29.55,20,10,24,0.00
2013-6-2,61.4,56.0,48.8,58.0,48.0,43.0,93,75,56,29.97,29.65,21,7,25,0.00
2013-6-3,69.6,58.6,46.3,50.0,46.3,43.0,91,67,40,30.05,29.94,11,4,13,0.00
2013-6-4,70.1,61.1,53.6,57.0,49.1,40.0,87,67,34,30.10,29.97,16,6,25,0.03
2013-6-5,67.0,58.5,53.4,59.0,53.9,49.0,95,85,70,30.02,29.86,16,8,18,0.26
2013-6-6,61.2,56.8,54.0,57.0,53.7,51.0,94,89,82,29.89,29.82,14,6,14,0.09
2013-6-7,69.8,60.6,54.1,57.0,52.9,50.0,93,77,52,29.92,29.84,8,3,12,0.00
2013-6-8,74.3,64.2,52.5,52.0,49.3,45.0,92,62,41,29.91,29.85,12,6,16,0.00
2013-6-9,76.6,66.7,59.0,62.0,56.5,46.0,93,71,56,29.88,29.70,24,11,30,0.09
2013-6-10,77.8,67.4,56.3,65.0,60.4,55.0,97,80,56,29.79,29.68,13,4,16,0.00
2013-6-11,84.0,72.6,58.8,66.0,62.5,57.0,95,72,49,29.83,29.70,19,4,23,0.00
2013-6-12,84.3,73.9,65.8,75.0,67.5,64.0,93,81,67,29.81,29.49,23,7,30,0.21
2013-6-13,78.7,69.4,58.6,63.0,57.9,55.0,93,69,45,29.95,29.62,16,5,21,0.00
2013-6-14,77.3,66.9,53.2,60.0,55.4,50.0,91,68,45,30.06,29.88,12,5,15,0.00
2013-6-15,82.0,70.7,61.0,69.0,63.7,57.0,93,79,61,29.94,29.73,25,9,33,0.08
2013-6-16,83.8,74.4,65.4,67.0,59.4,52.0,93,63,34,29.83,29.78,20,6,25,0.00
2013-6-17,86.6,75.6,63.4,61.0,56.6,52.0,74,53,33,29.84,29.75,18,6,22,0.00
2013-6-18,75.5,66.0,57.3,58.0,54.2,50.0,85,67,53,29.99,29.83,17,9,18,0.00
2013-6-19,80.3,67.0,51.0,59.0,52.3,44.0,81,61,43,30.06,29.95,10,4,11,0.00
2013-6-20,87.6,74.2,57.2,64.0,58.8,52.0,85,61,43,30.04,29.91,16,7,19,0.00
2013-6-21,75.4,71.3,64.7,68.0,64.7,61.0,95,80,63,30.03,29.75,22,10,35,0.49
2013-6-22,83.4,73.1,65.0,76.0,69.0,64.0,96,87,68,30.04,29.81,23,12,32,1.84
2013-6-23,81.4,72.9,64.3,74.0,68.1,63.0,95,85,70,29.95,29.75,26,8,39,0.30
2013-6-24,76.9,69.2,65.8,69.0,66.4,64.0,96,91,75,29.95,29.76,27,8,31,0.36
2013-6-25,80.2,71.9,64.7,76.0,69.7,63.0,98,93,85,29.86,29.70,19,6,23,2.19
2013-6-26,81.5,74.5,68.9,73.0,70.6,66.0,97,87,73,29.69,29.60,17,5,34,0.55
2013-6-27,85.4,76.3,67.7,73.0,67.8,61.0,96,76,51,29.73,29.63,19,8,30,0.00
2013-6-28,78.0,70.0,63.6,65.0,62.0,59.0,93,77,58,29.68,29.56,24,11,32,0.02
2013-6-29,70.7,65.5,62.9,65.0,62.4,59.0,96,89,81,29.74,29.55,15,5,25,0.22
2013-6-30,76.7,67.2,58.2,62.0,57.6,53.0,90,72,53,29.95,29.75,19,7,20,0.00
2013-7-1,76.8,65.7,52.6,59.0,54.6,50.0,91,69,44,30.03,29.95,21,6,27,0.00
2013-7-2,75.0,64.3,52.7,60.0,54.5,47.0,94,73,40,30.04,29.96,14,5,17,0.00
2013-7-3,72.2,61.6,48.8,63.0,56.3,48.0,97,83,69,30.02,29.95,8,2,10,0.00
2013-7-4,81.3,68.6,51.9,67.0,60.5,51.0,98,78,55,30.00,29.91,13,4,17,0.01
2013-7-5,82.0,71.6,59.6,68.0,63.5,58.0,95,77,57,29.97,29.89,16,7,21,0.00
2013-7-6,82.8,70.9,60.8,70.0,64.5,59.0,93,81,60,29.95,29.85,12,6,15,0.00
2013-7-7,86.1,75.9,64.9,73.0,69.3,63.0,96,81,62,29.88,29.81,13,6,17,0.00
2013-7-8,87.0,76.9,70.3,78.0,72.4,68.0,96,86,71,29.88,29.82,22,9,25,0.53
2013-7-9,82.3,76.7,71.3,77.0,73.8,70.0,97,91,80,29.88,29.75,19,7,23,0.12
2013-7-10,77.3,72.7,62.2,75.0,65.5,59.0,96,79,57,29.93,29.76,13,6,20,0.00
2013-7-11,78.7,67.7,55.6,64.0,59.4,55.0,97,77,52,30.05,29.94,7,2,12,0.00
2013-7-12,80.2,67.8,54.4,66.0,59.2,53.0,95,76,46,30.07,29.98,9,2,12,0.00
2013-7-13,80.4,68.2,54.4,67.0,61.2,53.0,96,80,56,30.07,29.99,12,4,15,0.01
2013-7-14,83.3,72.7,59.9,73.0,66.6,58.0,95,82,65,30.12,30.05,12,4,13,0.00
2013-7-15,87.4,77.0,66.0,77.0,71.5,64.0,96,84,68,30.17,30.09,7,3,10,0.00
2013-7-16,87.6,78.8,69.0,78.0,74.1,68.0,98,86,70,30.19,30.12,11,4,12,0.00
2013-7-17,89.2,80.7,71.7,79.0,74.7,70.0,97,82,63,30.21,30.07,10,3,15,0.00
2013-7-18,88.5,80.8,71.6,78.0,74.1,69.0,95,81,64,30.08,29.82,15,6,19,0.00
2013-7-19,87.7,79.9,67.8,75.0,71.6,64.0,88,76,62,29.82,29.66,20,9,22,0.00
2013-7-20,82.5,71.4,59.3,70.0,64.8,58.0,96,81,57,29.85,29.75,11,3,17,0.00
2013-7-21,81.8,69.9,61.3,73.0,65.6,60.0,96,87,71,29.86,29.76,14,6,22,0.01
2013-7-22,83.5,71.8,59.0,74.0,66.8,58.0,98,85,67,29.80,29.62,20,6,48,0.18
2013-7-23,75.7,67.3,57.2,63.0,58.9,54.0,96,76,53,29.90,29.65,15,5,18,0.00
2013-7-24,74.0,62.1,50.7,60.0,54.5,49.0,97,78,51,30.00,29.90,7,2,9,0.00
2013-7-25,78.3,65.2,50.4,67.0,59.4,49.0,97,82,63,30.02,29.91,14,6,18,0.02
2013-7-26,75.6,66.3,57.2,70.0,62.1,55.0,96,87,60,29.91,29.77,23,10,25,0.28
2013-7-27,61.1,56.3,52.8,55.0,50.0,46.0,94,80,61,29.89,29.84,18,8,23,0.00
2013-7-28,66.7,57.9,49.3,55.0,50.8,47.0,93,78,62,29.98,29.82,17,7,22,0.00
2013-7-29,75.6,61.2,49.6,62.0,54.8,48.0,95,81,58,30.08,29.98,8,2,12,0.00
2013-7-30,69.8,61.8,52.8,65.0,59.8,52.0,97,93,82,30.09,29.99,15,6,16,0.02
2013-7-31,77.7,67.4,59.0,68.0,63.7,57.0,98,88,70,29.99,29.88,11,3,16,0.01
2013-8-1,77.5,66.5,56.3,61.0,58.0,54.0,97,77,46,29.95,29.82,17,5,20,0.11
2013-8-2,79.6,69.6,60.2,69.0,62.8,59.0,96,80,60,29.88,29.77,10,4,13,0.00
2013-8-3,76.3,66.2,52.3,60.0,55.9,51.0,96,72,46,30.07,29.89,13,3,16,0.00
2013-8-4,77.1,64.9,50.5,63.0,55.7,49.0,94,75,44,30.14,30.02,7,2,11,0.00
2013-8-5,70.7,62.9,55.6,66.0,60.5,54.0,97,92,80,30.02,29.77,18,7,24,0.74
2013-8-6,80.8,71.5,65.3,74.0,69.0,64.0,98,92,77,29.81,29.71,10,5,13,0.02
2013-8-7,80.3,72.6,60.4,72.0,67.0,58.0,98,84,62,29.88,29.68,11,4,16,0.01
2013-8-8,78.7,66.8,55.4,67.0,61.5,55.0,100,84,58,29.96,29.88,11,2,16,0.00
2013-8-9,77.6,67.2,56.6,68.0,61.9,55.0,97,84,67,29.99,29.90,10,4,15,0.01
2013-8-10,75.3,64.4,52.6,61.0,56.4,51.0,95,77,54,30.08,29.99,11,4,15,0.00
2013-8-11,77.8,64.3,52.1,68.0,60.7,51.0,96,88,69,30.06,29.94,13,2,16,0.00
2013-8-12,79.5,69.9,59.6,71.0,64.1,56.0,96,83,59,29.95,29.82,12,5,16,0.00
2013-8-13,69.9,61.8,51.5,58.0,52.3,48.0,95,73,50,30.09,29.89,12,4,15,0.00
2013-8-14,73.3,59.0,44.1,59.0,51.3,43.0,97,78,47,30.16,30.06,8,1,10,0.00
2013-8-15,73.7,62.0,51.1,61.0,55.5,49.0,94,80,58,30.10,30.03,7,1,10,0.00
2013-8-16,80.2,64.6,49.7,62.0,55.5,48.0,96,75,43,30.12,30.06,7,1,10,0.00
2013-8-17,77.8,64.2,49.3,64.0,56.4,48.0,96,78,45,30.17,30.07,8,2,12,0.00
2013-8-18,78.7,64.9,49.6,64.0,57.3,48.0,96,78,53,30.14,30.02,8,2,12,0.00
2013-8-19,79.6,66.7,53.0,68.0,61.4,51.0,96,84,63,30.03,29.94,13,4,16,0.00
2013-8-20,82.3,69.9,58.2,71.0,64.5,57.0,98,84,63,30.00,29.91,14,6,18,0.01
2013-8-21,84.8,74.8,64.6,73.0,68.8,63.0,96,82,64,29.95,29.86,17,8,22,0.00
2013-8-22,73.8,69.0,60.4,70.0,66.5,59.0,96,91,81,30.03,29.89,17,4,34,0.55
2013-8-23,79.1,66.9,56.5,66.0,60.8,54.0,98,82,60,30.10,30.02,11,4,15,0.00
2013-8-24,81.6,68.2,53.2,72.0,63.3,51.0,96,85,68,30.16,30.06,12,5,15,0.00
2013-8-25,85.4,75.0,66.8,74.0,68.5,65.0,95,81,59,30.13,30.01,15,8,22,0.00
2013-8-26,87.1,75.9,66.0,77.0,70.4,64.0,96,83,65,30.04,29.87,16,7,18,0.00
2013-8-27,89.7,79.9,70.9,78.0,72.8,68.0,94,80,62,29.89,29.73,16,7,22,0.00
2013-8-28,83.4,76.3,66.9,76.0,72.0,66.0,95,86,74,29.93,29.75,7,3,11,0.00
2013-8-29,84.8,71.5,62.3,75.0,68.2,61.0,98,90,68,30.00,29.88,9,4,11,0.01
2013-8-30,93.2,78.2,68.4,80.0,72.8,67.0,97,85,55,29.88,29.65,12,5,19,0.16
2013-8-31,79.3,71.3,64.8,73.0,67.9,63.0,96,89,77,29.77,29.69,10,5,17,0.05
2013-9-1,84.0,71.3,61.2,74.0,65.9,59.0,98,84,55,29.77,29.64,13,5,21,0.01
2013-9-2,73.0,63.1,52.8,60.0,56.9,51.0,96,81,57,29.94,29.77,12,4,15,0.00
2013-9-3,74.7,60.0,46.1,59.0,53.0,45.0,97,80,52,30.04,29.93,8,1,10,0.01
2013-9-4,82.7,66.0,46.9,67.0,58.1,45.0,97,78,53,30.06,29.98,10,2,14,0.01
2013-9-5,76.4,67.0,57.5,65.0,61.6,55.0,97,84,63,30.15,30.02,15,6,17,0.00
2013-9-6,84.6,68.3,54.3,67.0,59.9,52.0,94,77,52,30.13,29.89,15,6,18,0.00
2013-9-7,89.0,74.6,63.1,74.0,66.5,61.0,93,77,54,29.90,29.78,13,5,17,0.00
2013-9-8,75.9,69.9,65.7,70.0,66.4,63.0,94,88,78,29.94,29.83,20,10,24,0.00
2013-9-9,94.1,77.4,64.1,77.0,69.8,63.0,98,79,51,29.85,29.69,13,7,17,0.00
2013-9-10,94.2,81.5,70.8,68.0,64.0,61.0,75,57,34,29.88,29.76,20,9,24,0.00
2013-9-11,83.2,73.1,65.6,67.0,63.6,61.0,90,73,54,29.97,29.86,12,3,17,0.00
2013-9-12,75.4,65.3,52.3,63.0,53.7,47.0,92,69,39,30.05,29.91,20,6,25,0.01
2013-9-13,67.9,54.9,41.9,46.0,40.4,36.0,90,62,32,30.16,30.05,14,3,16,0.00
2013-9-14,72.1,54.9,35.9,49.0,42.3,33.0,92,66,33,30.13,29.92,13,4,16,0.00
2013-9-15,59.0,54.8,48.3,55.0,51.2,45.0,94,88,67,30.15,29.88,12,4,15,0.62
2013-9-16,67.0,55.6,45.8,53.0,45.9,41.0,94,72,40,30.33,30.15,12,6,17,0.00
2013-9-17,69.3,55.6,40.2,56.0,48.8,38.0,94,79,55,30.27,30.01,17,5,22,0.01
2013-9-18,78.1,67.0,58.4,68.0,61.4,54.0,92,82,72,30.01,29.78,16,8,21,0.29
2013-9-19,91.1,74.2,66.4,71.0,67.2,64.0,93,81,47,29.80,29.62,20,8,31,0.71
2013-9-20,68.0,63.0,54.1,64.0,57.0,50.0,93,81,62,29.79,29.67,20,8,24,0.02
2013-9-21,64.0,54.3,45.8,51.0,47.0,43.0,93,78,53,29.90,29.79,15,6,20,0.00
2013-9-22,68.6,52.9,38.4,51.0,44.5,36.0,94,76,45,30.01,29.90,8,2,15,0.01
2013-9-23,71.8,55.9,41.3,50.0,46.3,39.0,93,73,44,30.04,29.93,13,7,19,0.01
2013-9-24,73.0,58.3,44.0,53.0,48.0,42.0,92,72,42,29.95,29.85,15,6,18,0.00
2013-9-25,74.1,57.8,43.6,55.0,47.4,42.0,94,72,37,29.92,29.84,10,4,13,0.00
2013-9-26,79.6,59.9,43.6,57.0,50.2,42.0,94,74,41,29.99,29.89,16,5,19,0.01
2013-9-27,82.1,64.0,47.8,55.0,48.5,43.0,92,63,26,30.05,29.93,17,8,21,0.00
2013-9-28,80.4,63.1,52.2,65.0,55.3,47.0,92,77,51,29.94,29.77,28,11,34,0.34
2013-9-29,70.7,55.4,41.5,54.0,44.2,40.0,95,71,33,30.01,29.91,7,2,9,0.01
2013-9-30,74.8,57.8,41.0,52.0,44.7,38.0,92,66,35,29.93,29.76,22,8,25,0.01
2013-10-1,81.6,65.9,53.6,61.0,56.7,51.0,93,74,47,29.89,29.78,18,8,23,0.00
2013-10-2,79.0,62.9,46.0,56.0,47.7,38.0,93,63,27,30.02,29.87,16,5,18,0.00
2013-10-3,75.1,64.6,54.8,69.0,61.2,49.0,95,89,72,29.86,29.73,13,6,17,0.27
2013-10-4,68.5,66.6,64.3,67.0,64.2,62.0,94,92,84,29.94,29.78,18,8,23,1.26
2013-10-5,72.8,65.7,53.5,69.0,62.1,44.0,95,88,68,29.81,29.67,18,7,20,0.09
2013-10-6,53.4,46.2,39.8,44.0,39.8,37.0,92,79,59,29.74,29.64,15,5,18,0.02
2013-10-7,69.5,53.4,40.5,48.0,43.6,38.0,93,73,41,30.02,29.72,17,6,21,0.00
2013-10-8,75.3,57.2,40.1,50.0,43.7,38.0,92,65,30,30.10,30.01,19,6,23,0.00
2013-10-9,73.4,57.6,42.6,50.0,43.2,38.0,92,63,28,30.14,30.04,13,5,18,0.00
2013-10-10,74.2,56.9,39.4,53.0,46.5,37.0,93,71,41,30.10,29.95,13,4,18,0.00
2013-10-11,76.2,61.3,48.9,58.0,52.0,46.0,92,74,47,29.96,29.80,26,9,30,0.00
2013-10-12,67.5,60.4,47.5,58.0,47.7,37.0,85,65,39,30.11,29.80,16,8,24,0.00
2013-10-13,61.8,48.9,36.7,41.0,35.0,32.0,85,62,33,30.35,30.11,12,3,16,0.00
2013-10-14,63.5,47.6,31.0,44.0,38.0,28.0,90,72,45,30.36,30.03,19,7,27,0.00
2013-10-15,61.8,53.3,48.3,59.0,47.4,41.0,93,81,62,30.02,29.70,20,11,30,0.20
2013-10-16,50.5,48.4,46.5,47.0,44.3,42.0,92,85,77,29.90,29.76,17,8,24,0.00
2013-10-17,55.9,46.4,36.8,44.0,40.7,34.0,92,82,48,29.88,29.77,11,4,14,0.11
2013-10-18,48.4,43.8,36.9,40.0,36.7,33.0,89,76,61,29.91,29.78,17,6,21,0.00
2013-10-19,51.9,41.2,33.4,39.0,35.2,30.0,90,80,49,29.88,29.72,19,6,28,0.06
2013-10-20,54.2,42.9,31.3,46.0,38.1,29.0,92,83,67,29.80,29.67,17,6,19,0.02
2013-10-21,48.5,38.9,30.7,41.0,29.0,22.0,84,69,46,29.94,29.75,20,9,25,0.00
2013-10-22,41.4,33.4,26.4,30.0,26.1,23.0,89,75,54,29.95,29.88,8,2,12,0.00
2013-10-23,40.9,34.8,26.1,32.0,26.5,22.0,90,73,49,30.01,29.93,15,7,19,0.00
2013-10-24,41.7,34.5,28.5,27.0,24.3,22.0,79,67,51,30.29,30.01,17,8,23,0.00
2013-10-25,51.5,39.2,25.6,31.0,25.3,21.0,86,61,38,30.36,29.96,24,10,32,0.00
2013-10-26,50.8,43.2,33.2,34.0,28.5,25.0,75,57,42,30.05,29.80,27,12,32,0.00
2013-10-27,54.3,40.2,25.2,32.0,27.8,21.0,88,64,39,30.04,29.88,21,6,22,0.00
2013-10-28,46.0,39.1,29.8,36.0,31.6,25.0,85,75,66,30.34,29.99,21,9,27,0.00
2013-10-29,58.5,45.7,34.9,40.0,35.2,29.0,85,68,45,30.33,30.06,16,9,21,0.00
2013-10-30,58.2,51.2,42.0,56.0,48.6,36.0,95,90,73,30.06,29.67,19,8,24,0.11
2013-10-31,60.9,53.9,42.1,59.0,51.7,39.0,94,92,86,29.66,29.24,23,11,25,0.33
2013-11-1,46.7,43.0,37.8,43.0,38.9,34.0,89,85,80,29.72,29.36,15,6,19,0.01
2013-11-2,48.3,39.0,30.5,37.0,33.1,27.0,91,80,62,30.12,29.72,18,7,18,0.00
2013-11-3,50.2,38.2,25.1,39.0,31.5,22.0,91,78,57,30.25,30.11,18,8,22,0.00
2013-11-4,52.6,47.3,38.4,44.0,39.5,34.0,83,74,65,30.14,29.98,26,12,31,0.00
2013-11-5,53.0,49.8,46.0,51.0,46.6,43.0,93,89,82,30.18,29.80,32,10,35,0.25
2013-11-6,55.4,42.7,31.0,54.0,37.9,26.0,93,83,67,30.16,29.65,26,14,30,0.26
2013-11-7,39.6,32.7,26.1,33.0,27.4,22.0,86,80,70,30.23,30.16,14,6,18,0.00
2013-11-8,45.8,36.9,23.6,36.0,29.3,21.0,90,75,57,30.28,29.77,24,10,34,0.00
2013-11-9,53.3,46.6,36.9,41.0,35.8,26.0,77,66,58,30.11,29.75,27,15,32,0.00
2013-11-10,47.4,39.1,30.4,31.0,29.1,26.0,84,68,51,30.31,30.11,23,9,27,0.00
2013-11-11,43.7,33.4,18.9,34.0,26.3,13.0,91,76,65,30.55,30.04,18,8,22,0.05
2013-11-12,28.0,20.3,14.1,18.0,13.3,9.0,80,74,61,30.74,30.56,15,7,18,0.00
2013-11-13,40.5,28.8,15.9,22.0,16.7,10.0,81,62,42,30.58,30.08,26,13,32,0.01
2013-11-14,47.7,38.0,30.1,30.0,24.8,18.0,72,60,47,30.08,29.86,20,11,24,0.00
2013-11-15,53.7,41.8,34.6,34.0,30.7,27.0,84,66,47,29.90,29.82,12,8,17,0.00
2013-11-16,56.6,48.4,36.5,53.0,45.6,32.0,93,90,82,29.81,29.42,32,17,40,0.06
2013-11-17,60.7,49.5,38.9,58.0,45.9,33.0,95,87,78,29.72,29.11,30,14,40,0.58
2013-11-18,39.4,33.6,25.8,33.0,27.2,22.0,89,77,61,30.24,29.72,26,15,34,0.00
2013-11-19,39.8,30.2,20.3,30.0,24.5,17.0,89,80,64,30.32,30.18,15,7,19,0.00
2013-11-20,38.1,34.4,31.2,35.0,30.3,27.0,93,84,75,30.20,30.02,18,11,26,0.30
2013-11-21,41.6,38.7,36.5,39.0,36.3,34.0,93,91,87,30.22,30.05,8,3,12,0.00
2013-11-22,37.5,30.3,22.6,35.0,24.9,14.0,92,80,66,30.47,30.22,17,7,20,0.03
2013-11-23,22.4,17.2,8.8,16.0,8.6,3.0,83,69,54,30.73,30.43,26,10,27,0.01
2013-11-24,25.9,16.6,6.8,10.0,6.1,2.0,83,65,41,30.71,30.30,18,9,22,0.00
2013-11-25,30.2,26.0,19.7,25.0,20.1,10.0,90,79,58,30.30,30.04,23,13,27,0.00
2013-11-26,30.7,23.9,8.4,26.0,16.3,1.0,85,73,59,30.23,30.02,22,9,32,0.00
2013-11-27,21.7,14.6,6.7,14.0,7.2,-1.0,80,72,64,30.30,30.20,15,8,20,0.00
2013-11-28,26.1,20.2,8.4,17.0,12.9,4.0,84,73,65,30.49,30.12,14,7,19,0.00
2013-11-29,30.5,20.0,4.2,22.0,13.6,0.0,87,77,64,30.60,30.34,16,6,18,0.00
2013-11-30,45.3,29.9,22.8,34.0,14.4,-99.9,89,70,62,30.32,30.00,15,-90,16,0.00
2013-12-1,39.2,31.9,26.7,31.0,26.9,23.0,89,82,67,30.11,29.94,9,3,11,0.00
2013-12-2,38.4,32.2,24.9,32.0,28.7,22.0,92,87,76,29.94,29.67,19,8,22,0.04
2013-12-3,40.4,37.2,33.8,39.0,35.7,32.0,95,94,92,29.67,29.60,13,7,17,0.02
2013-12-4,48.8,40.3,29.4,48.0,38.9,27.0,96,94,89,29.67,29.42,23,8,39,0.06
2013-12-5,29.0,19.3,13.8,26.0,13.1,8.0,89,77,67,30.28,29.67,24,12,31,0.00
2013-12-6,16.5,10.8,7.1,8.0,4.2,2.0,81,75,63,30.58,30.27,16,11,21,0.00
2013-12-7,14.6,8.5,0.8,4.0,0.5,-4.0,80,71,53,30.72,30.58,11,5,13,0.00
2013-12-8,19.5,15.9,9.7,17.0,10.8,2.0,90,80,66,30.62,29.96,16,7,16,0.00
2013-12-9,19.5,7.9,-7.9,17.0,2.8,-13.0,90,80,65,30.22,29.95,19,6,25,0.00
2013-12-10,16.6,12.1,-7.5,10.0,4.9,-12.0,85,73,63,30.28,29.96,22,11,34,0.00
2013-12-11,14.4,5.9,-9.0,11.0,-0.5,-14.0,87,75,60,30.56,30.26,20,7,23,0.00
2013-12-12,15.7,7.5,-7.2,10.0,1.2,-13.0,82,75,68,30.53,30.19,22,8,27,0.00
2013-12-13,25.3,18.4,7.5,21.0,13.9,4.0,87,82,71,30.20,30.07,17,8,21,0.00
2013-12-14,24.0,21.1,15.9,20.0,17.3,12.0,88,85,77,30.11,29.97,19,10,22,0.00
2013-12-15,17.0,9.6,5.6,12.0,2.9,0.0,80,74,69,30.13,29.96,24,10,30,0.00
2013-12-16,15.9,10.5,5.0,13.0,4.9,-2.0,89,78,67,30.14,30.01,10,4,12,0.00
2013-12-17,32.4,22.7,16.0,25.0,17.2,11.0,90,80,64,30.10,29.95,34,14,35,0.01
2013-12-18,33.4,22.9,9.5,25.0,16.4,6.0,87,77,60,30.12,29.77,22,9,32,0.00
2013-12-19,31.5,28.2,20.0,30.0,24.8,17.0,92,87,79,29.90,29.77,17,8,22,0.00
2013-12-20,31.5,24.1,22.3,30.0,21.8,20.0,92,90,89,29.83,29.75,0,0,10,0.00
2013-12-21,26.9,25.0,23.0,25.0,23.0,21.0,93,92,91,29.85,29.66,11,4,12,0.01
2013-12-22,26.9,24.3,18.9,25.0,21.8,16.0,93,90,87,30.12,29.65,12,6,15,0.09
2013-12-23,18.8,1.9,-7.3,16.0,-2.6,-12.0,88,81,77,30.49,30.13,13,7,18,0.00
2013-12-24,12.7,-3.0,-13.8,10.0,-7.7,-18.0,89,80,76,30.59,30.31,13,6,15,0.00
2013-12-25,23.2,19.0,13.6,21.0,15.7,9.0,90,87,79,30.30,30.10,20,10,26,0.00
2013-12-26,28.0,21.6,12.0,24.0,17.4,7.0,89,83,79,30.21,30.11,16,4,22,0.03
2013-12-27,36.3,24.7,5.2,28.0,20.4,2.0,91,84,73,30.23,30.03,23,7,25,0.01
2013-12-28,39.6,34.3,24.9,32.0,28.7,21.0,90,80,71,30.05,29.73,20,11,24,0.07
2013-12-29,38.2,19.4,-4.2,30.0,14.3,-11.0,95,80,72,30.24,29.71,24,15,31,0.00
2013-12-30,4.0,-2.7,-11.0,-1.0,-9.6,-17.0,82,73,57,30.34,30.22,10,2,12,0.00
2013-12-31,6.9,1.9,-7.5,3.0,-2.2,-12.0,84,83,80,30.36,30.22,11,2,16,0.00
2014-1-1,10.1,5.9,1.5,6.0,1.4,-4.0,85,81,74,30.32,30.26,18,11,21,0.00
2014-1-2,11.0,5.1,-9.4,4.0,-1.3,-15.0,83,75,70,30.45,30.25,11,4,15,0.00